Powrót do katalogu

IRIDIUM 158

AktywnyŁącznośćPO
NORAD 43571·PAYLOAD·🇺🇸 United States

Wystrzelony Jul 25, 2018 z Vandenberg Space Force Base

Loading…

Następne Przeloty (najbliższe 24 godziny)

TLE

ŚwieżeSource: CelesTrak SupGP

Epoka: Sep 14, 2026, 21:06 UTC

1 43571C 18061C   26257.87951389  .00000149  00000+0  53124-4 0  2577
2 43571  86.4012  19.2448 0002185  94.7260  77.8614 14.34218994    14

Śledź IRIDIUM 158 w czasie rzeczywistym z AllMySat

Download on the App Store